Home   Weather   Stralsund   Past weeks

Flag for Germany Past Weather in Stralsund, Mecklenburg-Western Pomerania, Germany — Yesterday and Last 2 Weeks

Now
30 °F

Partly sunny.


Feels Like: 23 °F
Forecast: 24 / 31 °F
Wind: 7 mph from Northwest

Location: Laage

Current Time: Jan 16, 2017 at 12:07:20 pm

Latest Report: Jan 16, 2017 at 11:20 am


Visibility: N/A

Pressure: 30.27 "Hg

Humidity: 93%

Dew Point: 28 °F

Location of StralsundLocation

Past Weather in Stralsund — Graph

°F

Stralsund Temperature Yesterday

Maximum temperature yesterday: 34 °F (at 4:20 am)
Minimum temperature yesterday: 23 °F (at 10:20 pm)
Average temperature yesterday: 32 °F

High & Low Weather Summary for the Past Weeks

 TemperatureHumidityPressure
High45 °F (Jan 3, 9:45 pm)100% (Jan 2, 10:52 pm)30.77 "Hg (Jan 2, 10:52 pm)
Low14 °F (Jan 6, 3:20 am)54% (Jan 6, 2:20 pm)29.06 "Hg (Jan 13, 7:08 am)
Average32 °F86%29.88 "Hg
* Reported Jan 1 10:20 am — Jan 16 10:43 am, Stralsund, Weather by CustomWeather, © 2017

Note: Actual official high and low records may vary slightly from our data, if they occured in-between our weather recording intervals... More about our weather records

Advertising

Stralsund Weather History for the Previous 24 Hours

Scroll right to see more
 ConditionsComfort  
Time TempWeatherWind HumidityBarometerVisibility
10:43 am
Mon, Jan 16
27 °FPartly sunny.3 mph100%30.27 "HgN/A
9:20 am23 °FScattered clouds.8 mph93%30.24 "HgN/A
8:20 am23 °FPassing clouds.5 mph93%30.24 "HgN/A
7:59 am23 °FPassing clouds.5 mph93%30.24 "HgN/A
7:20 am23 °FPassing clouds.6 mph93%30.21 "HgN/A
6:20 am21 °FPassing clouds.6 mph93%30.21 "HgN/A
5:50 am21 °FPassing clouds.7 mph93%30.18 "HgN/A
4:20 am21 °FFog.3 mph93%30.18 "Hg3 mi
3:20 am19 °FFog.7 mph93%30.18 "Hg3 mi
2:50 am21 °FFog.6 mph93%30.18 "Hg3 mi
1:20 am21 °FCold.6 mph86%30.15 "HgN/A
12:20 am25 °FCold.5 mph93%30.15 "HgN/A
11:20 pm
Sun, Jan 15
25 °FPassing clouds.5 mph93%30.15 "HgN/A
10:20 pm23 °FPassing clouds.5 mph93%30.12 "HgN/A
9:20 pm25 °FPassing clouds.6 mph93%30.12 "HgN/A
8:20 pm28 °FPassing clouds.5 mph86%30.09 "HgN/A
7:20 pm27 °FPassing clouds.5 mph93%30.07 "HgN/A
6:20 pm30 °FPassing clouds.7 mph80%30.07 "HgN/A
5:20 pm32 °FPassing clouds.8 mph80%30.04 "HgN/A
4:20 pm32 °FPassing clouds.9 mph80%30.04 "HgN/A
3:20 pm32 °FPartly sunny.10 mph80%30.01 "HgN/A
2:20 pm32 °FPartly sunny.8 mph80%29.98 "HgN/A
1:20 pm32 °FPartly sunny.12 mph80%29.95 "HgN/A
12:20 pm32 °FPartly sunny.10 mph80%29.95 "HgN/A
Weather by CustomWeather, © 2017

See weather overviewHow to use our weather pages